Location: Владивосток
(43.1151°N, 131.8856°E)
Time: 06:04:18
(UTC+10:00)

LO-87 - Pass Details

Date: 30 June 2022
Orbit: 451 x 466 km, 97.4° (Epoch: 08 August)

Event Time Altitude Azimuth Distance (km) Brightness Sun altitude
Exits shadow 01:08:47 37° 302° (WNW) 735 ? -23.7°
Drops below altitude 10° 01:11:17 10° 335° (NNW) 1,616 ? -23.7°
Sets 01:13:24 0° 342° (NNW) 2,500 ? -23.7°
